Powrót do katalogu

STARLINK-11205

AktywnyŁącznośćVLEO
NORAD 60313·PAYLOAD·🇺🇸 United States

Wystrzelony Jul 28, 2024 z Vandenberg Space Force Base

Loading…

Następne Przeloty (najbliższe 24 godziny)

TLE

ŚwieżeSource: CelesTrak SupGP

Epoka: Sep 14, 2026, 22:46 UTC

1 60313C 24133N   26257.94909722  .00025464  00000+0  20978-3 0  2576
2 60313  53.1564 293.5078 0001050  98.1927 337.4609 15.69694465    13

Śledź STARLINK-11205 w czasie rzeczywistym z AllMySat

Download on the App Store